Location: Cholderton
(51.1667°N, 1.6667°W)
Time: 02:56:36
(UTC+00:00)

Daily predictions for brighter satellites

Satellite Brightness Start Highest point End
(mag) Time Altitude Azimuth Time Altitude Azimuth Time Altitude Azimuth
ATLAS 3B R/B 4.5 01:11:14 24° NNE 01:11:14 24° NNE 01:14:58 10° NE
CENTAUR R/B 4.2 01:23:41 32° N 01:23:47 32° N 01:30:55 10° ENE
CZ-2D R/B 4.5 01:53:36 10° NNE 01:54:53 18° NNE 01:54:53 18° NNE
SL-16 R/B 4.2 02:02:36 24° ENE 02:02:36 24° ENE 02:05:06 10° NE
ADEOS II 4.3 01:59:47 10° NNE 02:02:01 22° NE 02:02:01 22° NE
USA 267 4.5 02:07:42 10° ENE 02:11:54 33° E 02:11:54 33° E
USA 229 DEB 4.3 02:33:32 49° N 02:33:32 49° N 02:38:57 10° NE
USA 229 4.3 02:33:39 49° N 02:33:39 49° N 02:39:02 10° NE
Cosmos 2322 Rocket 3.5 02:34:29 36° NE 02:34:29 36° NE 02:37:55 10° NE
NOSS 3-1 (A) 4.2 02:38:09 48° NNE 02:38:09 48° NNE 02:43:04 10° NE
ATLAS 5 CENTAUR R/B 4.2 02:43:37 28° NNE 02:43:37 28° NNE 02:49:51 10° ENE
Cosmos 2360 Rocket 3.5 02:45:05 35° E 02:45:05 35° E 02:49:34 10° NE
Exosat Rocket 4.5 02:46:53 75° N 02:46:53 75° N 02:52:42 10° NNE
USA 234 3.9 02:43:24 10° ESE 02:47:40 45° SE 02:47:40 45° SE
Cosmos 1980 Rocket 3.7 02:52:18 29° N 02:52:18 29° N 02:55:23 10° NNE
NOSS 3-1 (C) 4.2 02:55:45 46° N 02:55:45 46° N 03:01:25 10° NE
ATLAS 3B R/B 3.8 02:58:31 24° NNW 03:01:48 38° NNE 03:08:03 10° E
Resurs 1-4 Rocket 4.0 03:05:41 10° N 03:07:40 21° NNW 03:07:40 21° NNW
CENTAUR R/B 3.8 03:10:52 20° NW 03:16:14 50° NNE 03:24:26 10° ESE
Cosmos 2278 Rocket 3.7 03:13:02 10° NNW 03:18:12 34° NE 03:23:19 10° ESE
Cosmos 2333 Rocket 4.1 03:17:32 15° SSE 03:20:58 26° ESE 03:25:35 10° NE
USA 238 DEB 3.8 03:19:18 37° NW 03:22:30 78° NE 03:29:53 10° SE
Cosmos 1844 4.1 03:23:59 53° SE 03:23:59 53° SE 03:28:21 10° SSE
USA 238 3.8 03:19:24 37° NW 03:22:36 78° NE 03:30:00 10° SE
Lacrosse 4 Rocket 3.5 03:32:28 20° N 03:32:28 20° N 03:34:03 10° NNE
Cosmos 1975 Rocket 4.0 03:32:11 46° NNE 03:32:11 46° NNE 03:35:26 10° NNE
Gblst 52 Del rocket 4.1 03:33:03 82° E 03:33:03 82° E 03:38:28 10° E
SL-08 ROCKET BODY 4.4 03:33:02 51° SSE 03:34:33 74° E 03:40:31 10° NNE
Nadezhda 1 Rocket 4.1 03:28:19 10° NNW 03:33:53 62° NW 03:33:53 62° NW
CZ-2D R/B 4.0 03:34:28 10° N 03:36:12 17° NNW 03:36:12 17° NNW
Meteor 2-14 Rocket 4.4 03:37:09 49° S 03:38:56 81° E 03:45:08 10° NNE
Cosmos 1745 Rocket 3.8 03:40:14 71° SW 03:40:50 78° W 03:47:08 10° N
Okean 2 4.1 03:43:41 52° ENE 03:43:41 52° ENE 03:47:15 10° NNE
BREEZE-M R/B 4.1 03:42:48 45° SSE 03:43:25 48° SE 03:51:38 10° ENE
SL-16 R/B 2.7 03:44:29 46° NW 03:44:29 46° NW 03:49:26 10° NNE
ADEOS II 2.9 03:39:19 10° N 03:42:57 37° NNW 03:42:57 37° NNW
Cosmos 2322 4.0 03:44:05 44° S 03:45:45 63° ESE 03:51:27 10° NE
NOSS 3-2 (A) 3.9 03:44:08 22° NW 03:49:18 90° NE 03:57:37 10° SE
Cosmos 2181 Rocket 4.2 03:45:06 10° N 03:51:32 73° ENE 03:57:49 10° SSE
H-2A R/B 3.9 03:49:27 10° NNE 03:53:15 36° E 03:56:28 14° SSE
CBERS 1 LM4 rocket 4.4 03:49:26 10° NNE 03:54:40 85° ESE 03:55:45 56° S
USA 267 3.2 03:50:40 10° ENE 03:57:15 85° NNW 03:59:15 49° WSW
Cosmos 2219 Rocket 3.1 03:53:56 18° S 03:57:43 46° ESE 04:03:03 10° NE
Cosmos 2237 4.1 03:57:27 62° SW 03:58:25 79° WNW 04:04:12 10° NNE
Meteor 2-16 Rocket 4.4 03:55:17 25° S 03:59:00 85° E 04:05:08 10° NNE
ARIANE 5 R/B 3.6 03:56:59 10° N 04:00:09 29° NNW 04:00:09 29° NNW
Cosmos 2237 Rocket 4.5 03:59:13 10° SSE 04:03:32 23° ESE 04:07:53 10° NE
PSLV R/B 3.7 03:59:25 10° NNE 04:03:41 71° ESE 04:04:42 49° S
TIMED 4.4 04:05:36 76° NW 04:05:36 76° NW 04:09:52 10° NNE
Cosmos 1025 Rocket 4.0 04:06:17 10° SSE 04:10:22 47° E 04:14:29 10° NNE
NOSS 3-2 (C) 4.0 04:04:39 14° NW 04:11:12 87° NE 04:19:33 10° SE
COSMOS 2428 3.2 04:07:23 18° S 04:11:31 58° ESE 04:17:05 10° NE
COSMOS 2455 2.8 04:10:25 37° SSW 04:12:57 87° SE 04:19:02 10° NE
Cosmos 1470 3.8 04:12:22 10° N 04:16:13 47° ENE 04:19:59 10° SSE
Cosmos 2322 Rocket 2.9 04:16:19 33° NW 04:16:46 34° NW 04:21:52 10° NNE
CZ-2C R/B 3.6 04:11:44 10° NNE 04:16:46 46° E 04:21:44 10° S
Cosmos 921 Rocket 3.1 04:14:39 10° NNW 04:19:02 75° ENE 04:23:17 10° SSE
Cosmos 1733 3.0 04:15:29 10° NNW 04:19:23 81° W 04:23:13 10° S
IDEFIX/ARIANE 42P 2.4 04:16:04 10° NNE 04:21:22 80° WNW 04:24:49 22° SSW
Cosmos 1536 Rocket 3.7 04:18:25 13° S 04:22:14 71° E 04:26:35 10° NNE
Cosmos 1842 3.3 04:21:10 27° S 04:23:13 78° E 04:27:11 10° NNE
Cosmos 2360 Rocket 2.5 04:26:53 39° W 04:28:20 47° NW 04:33:48 10° NNE
USA 234 3.9 04:27:49 10° SSE 04:33:34 33° SW 04:35:02 30° WSW
NOSS 2-2 (D) 3.7 04:33:18 29° SSW 04:35:00 59° SE 04:39:14 10° NE
Cosmos 1980 Rocket 4.1 04:34:04 13° NW 04:35:39 15° NNW 04:38:44 10° N
PAYLOAD A 4.0 04:31:26 10° NNE 04:36:14 77° ESE 04:41:09 10° S
Cosmos 1992 Rocket 4.3 04:34:14 20° NW 04:37:20 39° WSW 04:42:08 10° S
CZ-4B R/B 3.4 04:40:41 10° NNE 04:44:49 60° E 04:48:43 10° S
Spot 2 4.4 04:43:17 10° N 04:47:05 39° WNW 04:47:52 35° W
Cosmos 2251 Rocket 3.7 04:45:20 26° SW 04:48:11 52° WNW 04:53:29 10° NNE
Aureole 1 Rocket 3.6 04:44:17 10° SSW 04:50:50 74° WNW 04:55:48 10° NNE
Cosmos 1606 Rocket 4.1 04:47:39 10° N 04:51:57 61° ENE 04:56:13 10° SSE
ATLAS 3B R/B 2.6 04:46:26 10° NW 04:53:09 84° SW 04:59:59 10° SE
Cosmos 44 Rocket 4.4 04:50:01 10° NNW 04:54:33 41° NE 04:59:00 10° ESE
Cosmos 292 Rocket 3.8 04:51:23 10° NNW 04:56:06 58° WSW 05:00:48 10° S
NOSS 8 (E) 4.2 04:58:31 36° WSW 04:59:33 62° NW 05:02:45 10° NE
MSX 3.8 04:53:55 10° N 04:59:35 63° WNW 05:05:13 10° SSW
Cosmos 2297 4.4 04:53:57 10° NNW 04:59:39 56° NE 05:05:17 10° SE
Cosmos 1709 Rocket 4.4 04:54:27 13° SW 04:59:42 41° WNW 05:05:42 10° N
Cosmos 2184 Rocket 4.0 04:53:40 10° S 04:59:53 89° W 05:06:13 10° N
Cosmos 44 2.9 04:57:17 15° NW 05:00:48 65° SW 05:05:03 10° SSE
Cosmos 1943 Rocket 4.1 04:56:49 10° NNW 05:01:37 27° NE 05:06:24 10° E
Cosmos 2278 Rocket 2.2 04:57:01 10° NW 05:02:36 57° WSW 05:08:08 10° S
Cosmos 1726 3.8 04:59:51 10° N 05:03:16 36° ENE 05:06:41 10° SE
Cosmos 2333 Rocket 2.2 04:59:36 12° SW 05:04:48 65° NW 05:10:30 10° NNE
Meteor 1-21 4.2 05:00:40 10° SSW 05:06:13 64° WNW 05:11:50 10° N
CENTAUR R/B 3.1 04:59:41 10° NW 05:07:31 71° SW 05:16:07 10° SSE
Nadezhda 3 Rocket 4.1 05:01:46 10° N 05:08:12 87° E 05:14:34 10° S
Cosmos 1953 2.2 05:06:07 10° NNW 05:10:11 76° W 05:14:11 10° S
PSLV R/B 4.1 05:06:27 10° NNE 05:10:12 66° ESE 05:13:53 10° S
Lacrosse 4 Rocket 3.7 05:09:20 10° NNW 05:10:14 11° NNW 05:11:08 10° N
NOSS 2-2 (C) 3.3 05:08:49 19° SW 05:11:29 72° NW 05:15:56 10° NE
ATLAS 2AS CENTAUR R/B 3.2 05:04:04 10° SW 05:12:06 80° SE 05:20:08 10° NE
USA 238 DEB 4.5 05:06:51 10° NW 05:13:00 33° WSW 05:19:22 10° S
USA 238 4.5 05:06:55 10° NW 05:13:07 33° WSW 05:19:30 10° S
ADEOS 4.3 05:10:01 10° N 05:14:39 33° WNW 05:19:03 11° WSW
Cosmos 1758 3.7 05:12:26 10° NNW 05:16:11 39° W 05:19:55 10° SSW
COSMO-SKYMED 1 2.5 05:14:57 10° SSE 05:19:18 80° WSW 05:23:40 10° NNW
Cosmos 1378 4.4 05:20:45 18° W 05:21:59 21° WNW 05:24:57 10° NNW
ADEOS II 4.1 05:22:16 10° NW 05:22:51 10° NW 05:23:26 10° NW
Gblst 52 Del rocket 4.2 05:20:01 16° W 05:24:33 84° SSW 05:30:31 10° ESE
NOSS 8 (H) 4.3 05:22:26 16° WSW 05:24:42 56° NW 05:27:56 10° NE
Meteor 1-4 Rocket 2.6 05:21:16 10° S 05:24:47 78° E 05:28:17 10° NNE
Cosmos 1190 Rocket 4.1 05:20:21 10° SSW 05:25:39 84° ESE 05:30:59 10° NNE
SJ-12 4.5 05:21:46 10° NNE 05:25:50 62° ESE 05:29:53 10° S
USA 116 3.5 05:24:27 10° SSE 05:28:22 87° ENE 05:31:52 10° NNW
H-2A R/B 3.4 05:25:12 10° N 05:28:40 28° WNW 05:32:15 10° WSW
SL-16 R/B 4.0 05:26:22 11° WNW 05:29:33 16° NNW 05:32:56 10° N
Cosmos 407 Rocket 3.4 05:24:26 10° SSW 05:29:35 83° WNW 05:34:46 10° NNE
CZ-4B R/B 4.1 05:26:07 10° N 05:29:49 46° WNW 05:33:40 10° SW
Okean O Rocket 2.6 05:26:30 10° NNE 05:30:51 52° E 05:35:09 10° S
Cosmos 1726 Rocket 3.5 05:29:47 10° NNW 05:34:05 65° W 05:38:21 10° S
RESURS DK-1 4.5 05:30:31 10° S 05:34:11 31° ESE 05:37:51 10° NE
GENESIS II 4.4 05:31:27 10° SW 05:35:28 60° NW 05:39:33 10° NE
Cosmos 2074 Rocket 4.2 05:29:27 10° SSW 05:35:30 51° WNW 05:41:35 10° N
PAYLOAD B 4.5 05:33:44 10° NNE 05:39:21 77° ESE 05:44:53 10° SSW
CZ-4B DEB 4.3 05:33:57 10° NNE 05:39:29 85° ESE 05:44:57 10° SSW
USA 267 3.6 05:33:40 10° ENE 05:40:01 56° N 05:46:23 10° W
Cosmos 2219 Rocket 2.7 05:36:34 10° WSW 05:41:48 39° NW 05:47:03 10° NNE
Meteor 1-31 Rocket 3.4 05:39:08 10° N 05:42:35 32° WNW 05:46:00 10° SW
ERBS 2.6 05:40:26 10° SW 05:43:47 66° SE 05:47:10 10° ENE
Cosmos 2058 Rocket 3.0 05:40:52 10° NNW 05:45:16 75° W 05:49:41 10° S
Cosmos 2228 3.2 05:41:22 10° NNW 05:45:29 47° W 05:49:34 10° SSW
NOSS 0 Rocket 4.0 05:40:39 10° SW 05:46:46 66° NW 05:52:59 10° NNE
Cosmos 2237 Rocket 2.2 05:41:22 10° SW 05:47:03 73° WNW 05:52:47 10° NNE
Cosmos 1908 3.4 05:43:42 10° N 05:47:34 77° ENE 05:51:24 10° SSE
NOSS 2-2 (E) 4.1 05:44:20 10° WSW 05:47:59 38° NNW 05:52:26 10° NE
Cosmos 1025 Rocket 4.2 05:44:56 10° WSW 05:48:14 21° WNW 05:51:34 10° NNW
Cosmos 1295 Rocket 4.5 05:44:25 10° SSW 05:50:37 81° W 05:56:48 10° N
Cosmos 1470 4.2 05:49:15 10° NW 05:51:55 18° W 05:54:35 10° SW
Meteor PRIRODA 4.3 05:51:05 10° N 05:54:32 35° WNW 05:57:57 10° SW
CZ-2C R/B 3.3 05:50:15 10° N 05:54:50 32° WNW 05:59:23 10° SW
COSMOS 2428 3.5 05:51:01 10° WSW 05:56:07 33° NW 06:01:15 10° NNE
Cosmos 389 Rocket 3.2 05:53:44 10° SW 05:56:49 30° WNW 05:59:56 10° N
COBE Rocket 4.4 05:52:56 10° SSW 05:57:37 39° W 06:02:27 10° NNW
COSMOS 2455 3.8 05:54:21 10° W 05:59:37 30° NNW 06:04:54 10° NNE
IDEFIX/ARIANE 42P 4.1 05:56:58 10° NNW 06:00:11 17° NW 06:03:22 10° W
Cosmos 1484 Rocket 3.1 05:56:43 10° N 06:00:18 43° WNW 06:03:55 10° SW
Cosmos 2369 Rocket 3.1 05:55:18 10° NNW 06:00:47 50° NE 06:06:13 10° SE
In-Cosmos 22 4.1 05:56:12 10° SSW 06:01:32 74° WNW 06:07:01 10° N
BREEZE-M DEB (TANK) 4.5 06:02:37 10° W 06:24:41 81° S 06:29:27 10° E
